Waarnemingen

Advertentie
Mijn weer
Semmerzake, België (6428): temperatuur & dauwpunt: 06.08.2020 00:00:00 - 12.08.2020 00:00:00 (CEST)Semmerzake, België (6428): windsnelheid & windstoten: 06.08.2020 00:00:00 - 12.08.2020 00:00:00 (CEST)Semmerzake, België (6428): windrichting: 06.08.2020 00:00:00 - 12.08.2020 00:00:00 (CEST)Semmerzake, België (6428): luchtdruk: 06.08.2020 00:00:00 - 12.08.2020 00:00:00 (CEST)Semmerzake, België (6428): zicht: 06.08.2020 00:00:00 - 12.08.2020 00:00:00 (CEST)
Datum & Tijd tt [°C] td [°C] ff [km/u] ff [kn] fx [km/u] fx [kn] dd ppp [hPa] vv [km]
12.08.2020 00:00:00 - - - - - - - - -
11.08.2020 23:00:00 - - - - - - - - -
11.08.2020 22:00:00 - - - - - - - - -
11.08.2020 21:00:00 - - - - - - - - -
11.08.2020 20:00:00 - - - - - - - - -
11.08.2020 19:00:00 - - - - - - - - -
11.08.2020 18:00:00 - - - - - - - - -
11.08.2020 17:00:00 - - - - - - - - -
11.08.2020 16:00:00 - - - - - - - - -
11.08.2020 15:00:00 - - - - - - - - -
11.08.2020 14:00:00 - - - - - - - - -
11.08.2020 13:00:00 - - - - - - - - -
11.08.2020 12:00:00 - - - - - - - - -
11.08.2020 11:00:00 - - - - - - - - -
11.08.2020 10:00:00 - - - - - - - - -
11.08.2020 09:00:00 - - - - - - - - -
11.08.2020 08:00:00 - - - - - - - - -
11.08.2020 07:00:00 - - - - - - - - -
11.08.2020 06:00:00 - - - - - - - - -
11.08.2020 05:00:00 - - - - - - - - -
11.08.2020 04:00:00 - - - - - - - - -
11.08.2020 03:00:00 - - - - - - - - -
11.08.2020 02:00:00 - - - - - - - - -
11.08.2020 01:00:00 - - - - - - - - -
11.08.2020 00:00:00 - - - - - - - - -
10.08.2020 23:00:00 - - - - - - - - -
10.08.2020 22:00:00 - - - - - - - - -
10.08.2020 21:00:00 - - - - - - - - -
10.08.2020 20:00:00 - - - - - - - - -
10.08.2020 19:00:00 - - - - - - - - -
10.08.2020 18:00:00 - - - - - - - - -
10.08.2020 17:00:00 - - - - - - - - -
10.08.2020 16:00:00 - - - - - - - - -
10.08.2020 15:00:00 - - - - - - - - -
10.08.2020 14:00:00 - - - - - - - - -
10.08.2020 13:00:00 - - - - - - - - -
10.08.2020 12:00:00 - - - - - - - - -
10.08.2020 11:00:00 - - - - - - - - -
10.08.2020 10:00:00 - - - - - - - - -
10.08.2020 09:00:00 - - - - - - - - -
10.08.2020 08:00:00 23,5 16,7 7 4 - - ZO 1013,7 16
10.08.2020 07:00:00 21,5 16,6 7 4 11 6 OZO 1013,5 16
10.08.2020 06:00:00 21,4 16,4 7 4 14 8 ONO 1013,3 20
10.08.2020 05:00:00 21,1 16,4 7 4 - - ONO 1013,7 20
10.08.2020 04:00:00 19,8 16,5 4 2 7 4 N 1014,5 19
10.08.2020 03:00:00 21,7 16,5 4 2 7 4 N 1014,5 20
10.08.2020 02:00:00 23,9 16,3 4 2 - - N 1014,1 20
10.08.2020 01:00:00 24,4 16,7 4 2 7 4 - 1014,3 20
10.08.2020 00:00:00 24,2 17,0 4 2 11 6 N 1014,2 20
09.08.2020 23:00:00 26,0 17,3 4 2 - - N 1014,2 20
09.08.2020 22:00:00 27,4 17,5 7 4 11 6 NO 1014,2 20
09.08.2020 21:00:00 29,3 16,0 4 2 7 4 N 1013,7 20
09.08.2020 20:00:00 31,7 15,1 4 2 - - N 1013,7 20
09.08.2020 19:00:00 33,4 14,5 7 4 14 8 ONO 1013,7 20
09.08.2020 18:00:00 34,1 14,2 7 4 18 10 O 1014,2 20
09.08.2020 17:00:00 34,1 14,1 11 6 - - ONO 1014,8 20
09.08.2020 16:00:00 33,9 15,1 11 6 22 12 OZO 1015,3 19
09.08.2020 15:00:00 33,1 15,0 11 6 25 14 ONO 1015,7 20
09.08.2020 14:00:00 32,7 14,7 14 8 - - O 1016,0 20
09.08.2020 13:00:00 31,9 16,4 11 6 25 14 ONO 1016,2 20
09.08.2020 12:00:00 30,8 16,5 14 8 22 12 O 1017,0 18
09.08.2020 11:00:00 28,5 18,8 7 4 - - NO 1017,2 17
09.08.2020 10:00:00 25,5 17,7 7 4 18 10 ONO 1017,2 19
09.08.2020 09:00:00 24,3 17,2 7 4 11 6 NO 1017,5 17
09.08.2020 08:00:00 23,4 16,5 7 4 - - NO 1017,2 19
09.08.2020 07:00:00 21,8 16,0 4 2 7 4 N 1017,0 20
09.08.2020 06:00:00 22,2 15,6 4 2 7 4 N 1017,0 20
09.08.2020 05:00:00 22,3 15,5 4 2 - - N 1017,1 20
09.08.2020 04:00:00 22,8 15,5 4 2 7 4 N 1017,2 20
09.08.2020 03:00:00 23,2 15,4 4 2 7 4 N 1017,2 20
09.08.2020 02:00:00 23,3 15,5 4 2 - - N 1017,6 20
09.08.2020 01:00:00 24,3 15,8 7 4 7 4 NO 1017,7 20
09.08.2020 00:00:00 25,4 15,8 4 2 7 4 N 1017,7 20
08.08.2020 23:00:00 27,1 15,1 7 4 - - N 1017,8 20
08.08.2020 22:00:00 28,4 14,6 11 6 22 12 NO 1017,8 20
08.08.2020 21:00:00 29,4 13,3 11 6 18 10 NO 1017,7 20
08.08.2020 20:00:00 30,7 13,0 14 8 - - NNO 1017,5 20
08.08.2020 19:00:00 32,4 13,9 11 6 29 16 NNO 1017,2 20
08.08.2020 18:00:00 35,1 11,6 7 4 14 8 N 1017,2 20
08.08.2020 17:00:00 35,6 12,0 7 4 - - NNO 1017,7 20
08.08.2020 16:00:00 34,5 11,9 4 2 18 10 N 1018,1 20
08.08.2020 15:00:00 34,5 11,8 7 4 22 12 O 1018,2 20
08.08.2020 14:00:00 34,1 11,5 7 4 - - ONO 1018,3 20
08.08.2020 13:00:00 33,7 11,0 11 6 18 10 ONO 1018,7 19
08.08.2020 12:00:00 32,5 14,4 4 2 11 6 N 1018,8 20
08.08.2020 11:00:00 31,1 13,5 4 2 - - N 1019,2 20
08.08.2020 10:00:00 28,6 14,2 4 2 11 6 N 1019,2 20
08.08.2020 09:00:00 25,1 15,1 4 2 11 6 N 1018,8 19
08.08.2020 08:00:00 21,2 15,7 4 2 - - N 1018,8 16
08.08.2020 07:00:00 18,8 14,4 4 2 7 4 N 1018,6 13
08.08.2020 06:00:00 18,1 14,6 4 2 7 4 N 1018,5 11
08.08.2020 05:00:00 19,1 14,5 4 2 - - N 1018,2 14
08.08.2020 04:00:00 19,7 14,6 4 2 7 4 N 1018,2 13
08.08.2020 03:00:00 19,7 14,8 4 2 7 4 N 1018,3 14
08.08.2020 02:00:00 20,7 14,8 4 2 - - N 1018,3 19
08.08.2020 01:00:00 22,6 14,8 4 2 7 4 N 1018,3 20
08.08.2020 00:00:00 24,5 14,7 4 2 14 8 N 1018,2 20
07.08.2020 23:00:00 26,0 14,8 7 4 - - NO 1018,1 20
07.08.2020 22:00:00 26,8 15,3 7 4 11 6 NO 1018,0 20
07.08.2020 21:00:00 29,7 15,7 4 2 7 4 N 1017,6 20
07.08.2020 20:00:00 32,7 13,8 4 2 - - N 1017,2 20
07.08.2020 19:00:00 33,6 13,1 4 2 11 6 N 1017,2 20
07.08.2020 18:00:00 34,1 12,4 4 2 14 8 N 1017,6 20
07.08.2020 17:00:00 34,0 12,3 4 2 - - N 1017,8 20
07.08.2020 16:00:00 33,6 11,7 7 4 18 10 ZO 1018,2 20
07.08.2020 15:00:00 33,3 11,5 7 4 18 10 O 1018,5 20
07.08.2020 14:00:00 33,0 11,7 4 2 - - N 1018,7 20
07.08.2020 13:00:00 33,0 13,3 4 2 11 6 N 1019,1 19
07.08.2020 12:00:00 31,0 13,2 7 4 14 8 ZW 1019,3 20
07.08.2020 11:00:00 29,1 14,7 4 2 - - N 1019,7 20
07.08.2020 10:00:00 26,5 15,0 4 2 7 4 N 1019,6 19
07.08.2020 09:00:00 24,8 14,1 4 2 7 4 N 1019,6 20
07.08.2020 08:00:00 21,6 13,1 4 2 - - N 1019,2 20
07.08.2020 07:00:00 19,3 12,3 4 2 7 4 N 1019,1 20
07.08.2020 06:00:00 17,2 12,1 4 2 7 4 N 1018,7 15
07.08.2020 05:00:00 17,6 12,6 4 2 - - N 1018,3 20
07.08.2020 04:00:00 17,9 13,1 4 2 4 2 N 1018,5 20
07.08.2020 03:00:00 21,0 12,9 4 2 7 4 N 1018,5 20
07.08.2020 02:00:00 21,5 14,0 4 2 - - N 1018,7 20
07.08.2020 01:00:00 23,0 15,4 7 4 11 6 O 1018,7 20
07.08.2020 00:00:00 22,8 16,1 4 2 11 6 N 1018,7 20
06.08.2020 23:00:00 23,5 16,3 7 4 - - ONO 1018,6 20
06.08.2020 22:00:00 24,3 15,3 7 4 11 6 NO 1018,2 20
06.08.2020 21:00:00 28,6 11,3 4 2 7 4 N 1017,7 20
06.08.2020 20:00:00 31,0 9,2 4 2 - - N 1017,5 20
06.08.2020 19:00:00 31,5 8,8 7 4 14 8 Z 1017,3 8
06.08.2020 18:00:00 31,5 8,7 7 4 18 10 Z 1017,3 20
06.08.2020 17:00:00 31,3 8,3 4 2 - - N 1017,6 20
06.08.2020 16:00:00 31,9 9,4 7 4 22 12 Z 1017,6 20
06.08.2020 15:00:00 30,3 9,1 7 4 22 12 Z 1018,0 20
06.08.2020 14:00:00 30,1 10,5 7 4 - - Z 1018,3 20
06.08.2020 13:00:00 27,9 10,4 7 4 18 10 Z 1018,6 20
06.08.2020 12:00:00 26,9 10,2 7 4 14 8 Z 1018,7 20
06.08.2020 11:00:00 25,3 10,4 7 4 - - Z 1018,6 20
06.08.2020 10:00:00 23,6 13,3 7 4 14 8 O 1018,6 20
06.08.2020 09:00:00 20,9 12,9 4 2 7 4 N 1018,7 20
06.08.2020 08:00:00 17,8 12,7 4 2 - - N 1018,3 20
06.08.2020 07:00:00 14,8 10,8 4 2 7 4 N 1017,8 20
06.08.2020 06:00:00 14,9 10,9 4 2 11 6 N 1017,6 20
06.08.2020 05:00:00 15,2 11,7 4 2 - - N 1017,2 20
06.08.2020 04:00:00 15,1 11,2 4 2 4 2 N 1017,0 20
06.08.2020 03:00:00 15,5 11,2 4 2 4 2 N 1016,8 20
06.08.2020 02:00:00 15,7 11,1 4 2 - - N 1016,6 20
06.08.2020 01:00:00 16,0 11,2 4 2 4 2 N 1016,5 20
06.08.2020 00:00:00 17,5 11,7 4 2 7 4 N 1016,2 20

tt = temperatuur
td = dauwpunt
ff = windsnelheid
fx = windstoten
dd = windrichting
ppp = luchtdruk
vv = zicht

Weerstations in de omgeving